SCP
0 0 0 0 0 0 0 0 0 0 0 0 0 0 0 0 0 0 0 0 0 0 0 0 0 0 0 0 0 0 0 -0 0 -0 -0 -0 -0 -0
0 0 0 0 0 0 0 0 0 0 0 0 0 0 0 0 0 0 0 0 0 0 0 0 0 0 0 0 0 0 0 -0 -0 -0 -0 -0 -0 -0
0 0 0 0 0 0 0 0 0 0 0 0 0 0 0 0 0 0 0 0 0 0 -0 0 0 0 0 0 0 0 -0 0 -0 -0 -0 -0 -0 -0
0 0 0 0 0 0 0 0 0 0 0 0 0 0 0 0 0 0 0 0 0 0 0 0 -0 0 -0 0 0 0 -0 0 0 -0 -0 -0 -0 -0
0 0 0 0 0 0 0 0 0 0 0 0 0 0 0 0 0 0 0 0 0 0 0 0 0 0 -0 0 0 0 -0 0 0 0 0 0 0 -0
0 0 0 0 0 0 0 0 0 0 0 0 0 0 0 0 0 0 0 0 0 0 0 0 0 0 0 0 -0 0 0 0 0 0 0 0 -0 -0
0 0 0 0 0 0 0 0 0 0 0 0 0 0 0 0 0 0 0 0 0 0 0 0 0 0 0 0 -0 0 -0 0 0 0 0 -0 -0 0
0 0 -0 0 0 0 0 0 0 0 0 0 0 0 0 0 0 0 0 0 0 0 0 0 0 0 0 0 -0 0 -0 0 -0 0 -0 -0 0 0
0 0 0 0 0 0 0 0 0 0 0 0 0 0 0 0 0 0 0 0 0 0 0 0 0 0 0 0 0 -0 0 0 0 -0 -0 0 0 0
0 0 0 0 -0 0 0 0 0 0 0 0 0 0 0 0 0 0 0 0 0 0 0 0 0 0 0 0 0 0 0 -0 -0 -0 -0 0 0 0
0 -0 -0 0 0 0 0 0 0 0 0 0 0 0 0 0 0 0 0 0 0 0 0 0 0 0 0 0 0 0 -0 0 -0 -0 0 0 0 0
-0 -0 0 0 0 0 0 0 0 0 0 0 0 0 0 0 0 0 0 0 0 0 0 0 0 -0 0 0 0 -0 -0 -0 -0 -0 0 0 0 0
-0 -0 0 0 0 0 0 0 0 0 0 0 0 0 0 0 0 0 0 0 0 0 0 0 0 0 0 0 0 -0 0 -0 -0 -0 0 0 0 0
-0 -0 -0 -0 0 0 0 0 0 0 0 0 0 0 0 0 0 0 0 0 0 0 -0 -0 0 0 0 0 0 -0 -0 -0 -0 0 0 0 -0 0
-0 -0 -0 -0 0 0 0 0 0 0 0 0 0 0 0 0 0 0 0 0 0 0 0 0 0 0 0 0 0 -0 -0 -0 0 0 0 0 0 0
-0 0 -0 -0 0 0 0 0 0 0 0 0 0 0 0 0 0 0 0 0 0 0 0 0 0 0 -0 0 0 0 -0 0 0 0 0 0 0 0
-0 0 0 0 0 0 0 0 0 0 0 0 0 0 0 0 0 0 0 0 0 0 0 0 0 0 -0 -0 -0 0 0 0 0 0 0 0 0 0
-0 -0 -0 0 0 0 0 0 0 0 0 0 0 0 0 0 0 0 0 0 0 0 0 -0 0 -0 -0 0 -0 0 0 0 0 0 0 0 0 0
0 -0 0 0 0 0 0 0 0 0 0 0 0 0 0 -0 -0 -0 0 0 0 0 0 0 0 0 0 0 -0 -0 0 0 0 0 0 0 0 0
0 0 0 0 0 0 0 0 0 0 0 -0 0 0 -0 -0 -0 -0 0 0 0 0 -0 -0 0 0 0 0 -0 0 -0 0 0 0 0 0 0 0
0 0 0 0 0 0 0 -0 -0 -0 -0 0 0 -0 0 0 0 0 0 0 0 0 -0 0 0 0 0 0 0 0 0 -0 0 0 0 0 0 0
0 0 0 0 0 0 0 -0 -0 -0 0 0 0 0 0 0 -0 -0 0 -0 -0 -0 -0 -0 -0 0 0 0 0 0 0 0 0 -0 0 0 0 0
0 0 0 -0 -0 0 -0 0 0 0 0 0 0 0 -0 -0 -0 -0 -0 -0 -0 0 0 -0 -0 0 0 0 0 0 0 0 0 0 0 0 0 0
Wind_Speed_500mb
19 21 19 23 27 17 21 20 21 19 18 20 25 25 29 26 28 25 25 29 35 35 34 43 44 44 45 46 46 41 34 27 28 32 34 33 32 23
22 19 19 16 23 25 23 17 23 16 19 25 22 28 25 25 29 28 27 33 35 36 37 47 42 47 46 46 43 40 29 30 33 34 33 35 30 27
24 24 18 14 18 21 24 18 16 19 22 24 25 27 25 24 28 29 30 38 37 36 39 43 46 50 47 46 43 39 35 34 35 34 32 28 25 20
22 23 19 19 19 22 25 22 21 26 27 27 25 27 24 29 31 29 35 38 40 39 41 49 47 48 45 45 45 39 36 34 32 30 27 24 20 17
22 17 22 20 16 25 22 27 22 26 26 26 32 30 32 28 33 36 39 41 42 35 55 59 49 49 49 50 44 41 38 35 30 28 25 22 19 17
19 19 26 29 19 22 24 24 27 30 31 31 36 37 39 40 39 47 47 45 47 65 70 54 45 50 53 48 45 42 37 33 31 25 22 21 18 19
19 19 20 28 27 23 25 20 31 38 35 42 42 44 48 47 49 55 58 58 66 76 63 56 53 52 52 46 46 45 36 32 24 23 22 19 20 24
16 16 18 20 26 22 27 21 35 38 38 48 49 49 49 47 53 57 61 64 68 64 62 65 53 48 44 42 45 43 36 26 26 23 21 22 24 24
13 17 18 20 25 27 28 25 31 19 26 42 50 55 50 49 54 55 55 65 73 73 59 58 56 49 43 39 44 38 29 30 26 23 24 23 25 25
12 19 16 18 30 28 28 29 25 23 23 35 43 40 38 44 50 60 69 71 70 59 56 62 54 46 44 38 41 32 33 29 26 26 24 26 26 27
11 17 13 16 34 38 33 41 34 30 30 25 31 36 38 42 61 66 68 65 67 63 60 56 48 42 37 35 34 35 32 29 27 27 28 26 28 34
15 18 18 12 32 43 39 41 40 39 33 28 33 33 42 39 59 62 54 67 69 59 52 49 35 32 23 25 31 36 33 29 30 30 29 31 33 38
17 25 25 17 30 45 39 41 41 44 37 32 35 32 37 54 61 51 56 52 59 47 50 43 33 33 16 22 31 31 31 31 32 32 35 37 37 40
15 25 27 30 27 35 32 32 40 40 42 39 40 37 42 48 48 45 39 44 47 26 37 32 31 33 22 15 15 27 30 31 33 35 36 36 40 44
18 25 28 35 34 32 28 30 40 38 38 44 48 48 42 45 45 54 56 26 28 23 41 39 28 36 32 16 16 20 21 29 32 34 36 39 44 47
24 31 32 38 40 37 28 37 37 36 40 43 44 47 37 47 48 61 58 21 20 14 32 43 31 29 33 21 18 18 24 18 25 32 37 44 51 57
27 32 38 40 39 42 39 38 33 33 41 44 43 42 36 50 50 53 51 32 20 19 25 41 40 30 32 27 26 27 28 32 32 36 48 57 57 57
32 31 33 36 42 42 51 45 35 37 37 40 43 40 47 46 44 43 37 26 26 22 14 31 39 33 28 35 40 34 34 37 38 41 47 56 62 60
28 26 29 36 45 39 45 42 39 34 32 36 41 41 40 40 39 37 34 28 30 27 25 22 24 30 30 34 29 34 38 34 35 42 48 54 63 66
24 23 25 33 37 35 36 44 34 39 34 31 37 45 42 43 42 34 34 30 29 29 28 29 34 35 37 37 37 37 36 38 45 50 58 61 65 67
21 22 18 22 26 31 30 37 34 37 33 35 38 37 40 44 37 32 32 34 32 31 34 37 38 36 40 38 47 52 49 56 58 60 63 66 69 74
27 23 22 22 20 28 28 33 33 37 33 33 31 32 34 38 35 34 34 33 35 37 38 37 36 42 45 49 56 58 57 57 61 64 62 66 74 82
20 26 21 20 26 26 23 30 32 31 35 30 29 28 29 31 38 38 36 37 37 38 38 41 44 46 52 55 60 63 61 62 63 60 63 64 71 74
Wind_Direction_500mb
230 228 218 232 224 225 239 212 187 183 178 169 165 174 182 176 172 173 182 178 182 181 175 176 162 162 161 160 163 169 173 171 164 165 165 160 163 165
206 225 226 225 220 217 218 209 208 205 165 171 169 174 170 169 171 173 177 179 178 179 178 175 174 171 166 168 167 168 175 170 168 168 167 169 174 180
211 214 229 227 223 213 204 182 187 174 173 158 162 158 168 171 167 173 172 176 173 172 170 176 172 170 174 171 173 174 173 170 170 171 173 179 182 187
224 231 236 231 221 207 197 193 176 181 183 163 173 176 171 166 170 165 163 172 166 168 178 169 172 163 171 178 181 177 175 176 177 169 183 190 195 218
223 237 231 222 223 203 188 196 194 175 181 177 168 171 159 163 167 163 165 162 164 167 179 163 167 175 177 179 177 174 178 179 177 180 194 206 216 232
228 247 236 231 216 197 192 191 192 177 168 177 170 164 160 162 163 162 158 160 167 173 160 170 177 178 180 181 179 180 177 176 183 198 215 216 226 240
235 254 233 205 210 195 187 193 186 171 173 170 167 167 166 163 167 163 162 164 165 169 165 166 171 177 182 181 186 175 177 185 207 207 210 222 233 243
239 236 209 199 198 195 188 180 166 181 183 173 171 172 172 172 170 173 169 168 151 164 160 162 174 178 182 178 179 175 185 205 202 211 223 230 239 247
208 181 194 199 188 186 178 174 176 192 188 182 176 178 177 176 175 170 171 175 169 165 174 170 179 176 164 188 184 187 201 204 211 221 228 237 244 247
171 184 194 199 182 173 169 170 168 166 173 183 185 175 177 172 170 171 170 174 168 172 181 170 177 180 179 187 191 202 204 210 221 226 234 241 246 252
168 174 190 183 182 164 171 167 164 160 172 188 186 179 170 175 183 177 174 173 165 170 175 175 174 177 192 204 212 210 213 221 227 231 237 244 253 259
171 164 158 136 166 165 173 169 169 169 169 164 172 175 184 184 177 183 182 174 169 166 181 172 167 175 196 216 227 215 221 226 230 234 242 251 258 268
173 165 175 149 155 166 164 168 176 167 167 167 168 172 184 180 182 183 181 190 178 169 179 177 178 188 189 197 219 222 230 235 238 243 250 257 265 273
172 165 167 167 154 162 166 170 169 164 167 170 172 168 171 174 182 173 174 178 172 196 192 165 192 193 191 212 225 240 236 240 249 252 260 265 268 275
166 157 156 161 161 164 168 166 171 167 167 165 163 170 176 171 176 164 159 148 166 172 192 174 188 205 191 190 217 253 234 250 253 261 269 275 286 287
149 159 161 166 171 159 152 165 169 174 170 169 164 157 176 176 170 169 178 160 164 208 196 194 199 196 205 208 222 239 263 225 277 281 276 275 276 279
158 157 159 161 163 167 160 157 170 170 170 167 169 169 167 169 175 180 190 201 193 207 216 206 210 214 216 216 242 243 243 254 266 267 278 285 290 291
154 155 162 169 171 168 171 176 175 174 175 175 178 179 174 174 173 184 183 197 206 214 234 215 218 226 237 242 242 244 243 253 260 267 269 270 273 278
149 151 161 161 162 173 182 186 179 183 182 181 185 177 175 177 182 188 199 208 216 193 208 231 225 225 237 250 261 271 264 265 266 266 267 272 278 282
148 148 161 167 166 164 170 180 186 184 182 176 185 188 183 185 192 198 202 211 219 222 225 224 230 235 241 251 263 275 280 270 267 270 276 278 278 282
152 156 162 166 175 175 171 171 176 177 173 175 179 179 192 196 198 204 211 220 225 228 233 238 242 248 251 260 262 266 268 273 278 282 287 286 287 290
174 160 159 169 165 165 171 169 170 170 181 182 184 192 198 202 207 213 221 229 233 236 242 248 251 254 250 248 259 266 270 272 275 280 280 281 285 286
184 182 179 175 172 175 182 177 185 185 198 196 203 203 206 210 214 222 228 234 240 244 247 251 253 254 258 261 265 271 270 272 277 280 281 288 289 290
Wind_Speed_850mb
19 21 19 23 27 17 21 20 21 19 18 20 25 25 29 26 28 25 25 29 35 35 34 43 44 44 45 46 46 41 34 27 28 32 34 33 32 23
22 19 19 16 23 25 23 17 23 16 19 25 22 28 25 25 29 28 27 33 35 36 37 47 42 47 46 46 43 40 29 30 33 34 33 35 30 27
24 24 18 14 18 21 24 18 16 19 22 24 25 27 25 24 28 29 30 38 37 36 39 43 46 50 47 46 43 39 35 34 35 34 32 28 25 20
22 23 19 19 19 22 25 22 21 26 27 27 25 27 24 29 31 29 35 38 40 39 41 49 47 48 45 45 45 39 36 34 32 30 27 24 20 17
22 17 22 20 16 25 22 27 22 26 26 26 32 30 32 28 33 36 39 41 42 35 55 59 49 49 49 50 44 41 38 35 30 28 25 22 19 17
19 19 26 29 19 22 24 24 27 30 31 31 36 37 39 40 39 47 47 45 47 65 70 54 45 50 53 48 45 42 37 33 31 25 22 21 18 19
19 19 20 28 27 23 25 20 31 38 35 42 42 44 48 47 49 55 58 58 66 76 63 56 53 52 52 46 46 45 36 32 24 23 22 19 20 24
16 16 18 20 26 22 27 21 35 38 38 48 49 49 49 47 53 57 61 64 68 64 62 65 53 48 44 42 45 43 36 26 26 23 21 22 24 24
13 17 18 20 25 27 28 25 31 19 26 42 50 55 50 49 54 55 55 65 73 73 59 58 56 49 43 39 44 38 29 30 26 23 24 23 25 25
12 19 16 18 30 28 28 29 25 23 23 35 43 40 38 44 50 60 69 71 70 59 56 62 54 46 44 38 41 32 33 29 26 26 24 26 26 27
11 17 13 16 34 38 33 41 34 30 30 25 31 36 38 42 61 66 68 65 67 63 60 56 48 42 37 35 34 35 32 29 27 27 28 26 28 34
15 18 18 12 32 43 39 41 40 39 33 28 33 33 42 39 59 62 54 67 69 59 52 49 35 32 23 25 31 36 33 29 30 30 29 31 33 38
17 25 25 17 30 45 39 41 41 44 37 32 35 32 37 54 61 51 56 52 59 47 50 43 33 33 16 22 31 31 31 31 32 32 35 37 37 40
15 25 27 30 27 35 32 32 40 40 42 39 40 37 42 48 48 45 39 44 47 26 37 32 31 33 22 15 15 27 30 31 33 35 36 36 40 44
18 25 28 35 34 32 28 30 40 38 38 44 48 48 42 45 45 54 56 26 28 23 41 39 28 36 32 16 16 20 21 29 32 34 36 39 44 47
24 31 32 38 40 37 28 37 37 36 40 43 44 47 37 47 48 61 58 21 20 14 32 43 31 29 33 21 18 18 24 18 25 32 37 44 51 57
27 32 38 40 39 42 39 38 33 33 41 44 43 42 36 50 50 53 51 32 20 19 25 41 40 30 32 27 26 27 28 32 32 36 48 57 57 57
32 31 33 36 42 42 51 45 35 37 37 40 43 40 47 46 44 43 37 26 26 22 14 31 39 33 28 35 40 34 34 37 38 41 47 56 62 60
28 26 29 36 45 39 45 42 39 34 32 36 41 41 40 40 39 37 34 28 30 27 25 22 24 30 30 34 29 34 38 34 35 42 48 54 63 66
24 23 25 33 37 35 36 44 34 39 34 31 37 45 42 43 42 34 34 30 29 29 28 29 34 35 37 37 37 37 36 38 45 50 58 61 65 67
21 22 18 22 26 31 30 37 34 37 33 35 38 37 40 44 37 32 32 34 32 31 34 37 38 36 40 38 47 52 49 56 58 60 63 66 69 74
27 23 22 22 20 28 28 33 33 37 33 33 31 32 34 38 35 34 34 33 35 37 38 37 36 42 45 49 56 58 57 57 61 64 62 66 74 82
20 26 21 20 26 26 23 30 32 31 35 30 29 28 29 31 38 38 36 37 37 38 38 41 44 46 52 55 60 63 61 62 63 60 63 64 71 74
Wind_Direction_850mb
230 228 218 232 224 225 239 212 187 183 178 169 165 174 182 176 172 173 182 178 182 181 175 176 162 162 161 160 163 169 173 171 164 165 165 160 163 165
206 225 226 225 220 217 218 209 208 205 165 171 169 174 170 169 171 173 177 179 178 179 178 175 174 171 166 168 167 168 175 170 168 168 167 169 174 180
211 214 229 227 223 213 204 182 187 174 173 158 162 158 168 171 167 173 172 176 173 172 170 176 172 170 174 171 173 174 173 170 170 171 173 179 182 187
224 231 236 231 221 207 197 193 176 181 183 163 173 176 171 166 170 165 163 172 166 168 178 169 172 163 171 178 181 177 175 176 177 169 183 190 195 218
223 237 231 222 223 203 188 196 194 175 181 177 168 171 159 163 167 163 165 162 164 167 179 163 167 175 177 179 177 174 178 179 177 180 194 206 216 232
228 247 236 231 216 197 192 191 192 177 168 177 170 164 160 162 163 162 158 160 167 173 160 170 177 178 180 181 179 180 177 176 183 198 215 216 226 240
235 254 233 205 210 195 187 193 186 171 173 170 167 167 166 163 167 163 162 164 165 169 165 166 171 177 182 181 186 175 177 185 207 207 210 222 233 243
239 236 209 199 198 195 188 180 166 181 183 173 171 172 172 172 170 173 169 168 151 164 160 162 174 178 182 178 179 175 185 205 202 211 223 230 239 247
208 181 194 199 188 186 178 174 176 192 188 182 176 178 177 176 175 170 171 175 169 165 174 170 179 176 164 188 184 187 201 204 211 221 228 237 244 247
171 184 194 199 182 173 169 170 168 166 173 183 185 175 177 172 170 171 170 174 168 172 181 170 177 180 179 187 191 202 204 210 221 226 234 241 246 252
168 174 190 183 182 164 171 167 164 160 172 188 186 179 170 175 183 177 174 173 165 170 175 175 174 177 192 204 212 210 213 221 227 231 237 244 253 259
171 164 158 136 166 165 173 169 169 169 169 164 172 175 184 184 177 183 182 174 169 166 181 172 167 175 196 216 227 215 221 226 230 234 242 251 258 268
173 165 175 149 155 166 164 168 176 167 167 167 168 172 184 180 182 183 181 190 178 169 179 177 178 188 189 197 219 222 230 235 238 243 250 257 265 273
172 165 167 167 154 162 166 170 169 164 167 170 172 168 171 174 182 173 174 178 172 196 192 165 192 193 191 212 225 240 236 240 249 252 260 265 268 275
166 157 156 161 161 164 168 166 171 167 167 165 163 170 176 171 176 164 159 148 166 172 192 174 188 205 191 190 217 253 234 250 253 261 269 275 286 287
149 159 161 166 171 159 152 165 169 174 170 169 164 157 176 176 170 169 178 160 164 208 196 194 199 196 205 208 222 239 263 225 277 281 276 275 276 279
158 157 159 161 163 167 160 157 170 170 170 167 169 169 167 169 175 180 190 201 193 207 216 206 210 214 216 216 242 243 243 254 266 267 278 285 290 291
154 155 162 169 171 168 171 176 175 174 175 175 178 179 174 174 173 184 183 197 206 214 234 215 218 226 237 242 242 244 243 253 260 267 269 270 273 278
149 151 161 161 162 173 182 186 179 183 182 181 185 177 175 177 182 188 199 208 216 193 208 231 225 225 237 250 261 271 264 265 266 266 267 272 278 282
148 148 161 167 166 164 170 180 186 184 182 176 185 188 183 185 192 198 202 211 219 222 225 224 230 235 241 251 263 275 280 270 267 270 276 278 278 282
152 156 162 166 175 175 171 171 176 177 173 175 179 179 192 196 198 204 211 220 225 228 233 238 242 248 251 260 262 266 268 273 278 282 287 286 287 290
174 160 159 169 165 165 171 169 170 170 181 182 184 192 198 202 207 213 221 229 233 236 242 248 251 254 250 248 259 266 270 272 275 280 280 281 285 286
184 182 179 175 172 175 182 177 185 185 198 196 203 203 206 210 214 222 228 234 240 244 247 251 253 254 258 261 265 271 270 272 277 280 281 288 289 290